User: anonymous
Location: Unspecified
(0.0000°N, 0.0000°E)
Time: 19:20:00
(UTC+02:00)
Language:

CZ-4 R/B - Orbit

View from above orbital plane
View from above orbital plane
View from above satellite
View from above satellite

Ground track
Ground track

The orbit data is extracted from the following two-line orbital elements,

1 28059U 03049C   14234.50265260  .00000026  00000-0  18566-4 0  1349
2 28059 098.6913 075.5146 0051482 140.5823 274.8602 14.52141991574218
Epoch (UTC): 22 August 2014 12:03:49
Eccentricity: 0.0051482
inclination: 98.6913°
perigee height: 682 km
apogee height: 755 km
right ascension of ascending node: 75.5146°
argument of perigee: 140.5823°
revolutions per day: 14.52141991
mean anomaly at epoch: 274.8602°
orbit number at epoch: 57421

The dashed part of the orbit path shows where the satellite is in the earth's shadow,  

DLR